Back to catalog

STARLINK-31540

AliveCommunicationsVLEO
NORAD 59542·PAYLOAD·🇺🇸 United States

Launched Apr 18, 2024 from Cape Canaveral Space Force Station

Loading…

Next Passes (next 24 hours)

TLE

FreshSource: CelesTrak SupGP

Epoch: Sep 14, 2026, 21:36 UTC

1 59542C 24074J   26257.90048611 -.00004349  00000+0 -15754-3 0  2576
2 59542  43.0018 354.7520 0001507 267.5080 107.9939 15.27574564    15

Track STARLINK-31540 in real time with AllMySat

Download on the App Store